Torna al catalogo

THOR ABLESTAR DEB

AttivoLEO
NORAD 3752·DEBRIS·🇺🇸 United States

Lanciato Jun 29, 1961 da Cape Canaveral Space Force Station

Loading…

Prossimi Passaggi (prossime 24 ore)

TLE

AggiornatoSource: Space-Track

Epoca: Sep 14, 2026, 01:42 UTC

1 03752U 61015JE  26257.07114009  .00000421  00000-0  65398-3 0  9995
2 03752  67.6273 276.7201 0205320 170.6247 222.7953 13.51205978817269

Traccia THOR ABLESTAR DEB in tempo reale con AllMySat

Download on the App Store